Weather in Waterloo

Canada     43°28′00″N   80°30′47″W
temp.,
°C
wind,
m/s
gust,
m/s
humid.,
%
clouds,
%
prec.,
mm/h
press.,
hPa
HPBL,
m
17 june, thu
thu1723:00+8nw33725 0.0 101740
02:00+8nw335993 0.0 101734
05:00+8nw334999 0.0 101729
08:00+12wnw235577 0.0 1017101
11:00+18sw334290 0.0 1017828
14:00+21wsw454184 0.0 10161425
17:00+22wsw57495 0.0 10141630
20:00+18s597457 0.0 1013264
18 june, fri
fri1823:00+13sw41181100 0.0 1014204
02:00+14ssw4148734 0.0 1012269
05:00+16sw51485100 0.0 1011353
08:00+17sw51490100 0.9 1011483
11:00+19sw71390100 0.2 1010788
14:00+20sw6118999 0.3 1008830
17:00+23wsw6983100 1.3 10071042
20:00+21w489120 2.6 1007448
19 june, sat
sat1923:00+19wnw22965 0.2 100736
02:00+17wsw22950 0.2 100712
05:00+17wnw129791 0.1 100612
08:00+20wsw23905 0.1 1005170
11:00+21nw61074100 0.9 1006665
14:00+23wnw710627 1.6 10061213
17:00+22wnw67610 0.0 10061191
20:00+18nw47760 0.0 1008271
20 june, sun
sun2023:00+13nnw34780 0.0 100959
02:00+14nw2466100 0.0 1009102
05:00+12n347021 0.0 100955
08:00+15ne116866 0.0 1010112
11:00+19sse226114 0.0 1009522
14:00+23ssw345417 0.0 10081529
17:00+25sw355216 0.0 10061651
20:00+22ssw2476100 0.0 100679
21 june, mon
mon2123:00+16s3592100 0.0 100687
02:00+16sse3887100 0.4 1004159
05:00+18ssw41399100 4.4 1002369
08:00+20s81696100 4.9 1000552
11:00+23sw9148575 0.5 9991023
14:00+22sw9149071 2.3 9991192
17:00+14nw61293100 0.9 1003506
20:00+16nw51086100 1.2 1003620